Location: ActonStarParty
(42.4766°N, 71.4538°W)
Time: 22:46:14
(UTC-04:00)

Cosmos 1300 - Visible Passes

Search period start: 24 October 2014 00:00
Search period end: 02 November 2014 23:00
Orbit: 529 x 531 km, 82.5° (Epoch: 24 October)

Date Brightness Start Highest point End Pass type
(mag) Time Alt. Az. Time Alt. Az. Time Alt. Az.
24 Oct 5.7 05:32:38 10° NNE 05:35:24 18° ENE 05:38:09 10° ESE visible
24 Oct 2.7 19:24:54 10° S 19:28:47 81° W 19:32:42 10° N visible
25 Oct 5.8 05:22:11 10° NNE 05:24:49 17° ENE 05:27:26 10° ESE visible
25 Oct 2.7 19:14:19 10° S 19:18:13 88° W 19:22:08 10° N visible
26 Oct 5.8 05:11:44 10° NNE 05:14:13 16° ENE 05:16:41 10° ESE visible
26 Oct 2.6 19:03:45 10° S 19:07:38 86° E 19:11:33 10° N visible
27 Oct 5.9 05:01:18 10° NE 05:03:36 15° ENE 05:05:54 10° ESE visible
27 Oct 3.2 06:36:09 10° NNW 06:39:48 38° W 06:43:25 10° SSW visible
27 Oct 2.6 18:53:09 10° S 18:57:02 79° E 19:00:57 10° N visible
28 Oct 5.9 04:50:51 10° NE 04:52:58 14° ENE 04:55:04 10° ESE visible
28 Oct 3.1 06:25:30 10° NNW 06:29:12 41° W 06:32:53 10° SSW visible
28 Oct 2.6 18:42:34 10° S 18:46:26 73° E 18:50:20 10° NNE visible
29 Oct 6.0 04:40:26 10° NE 04:42:19 13° ENE 04:44:12 10° E visible
29 Oct 3.0 06:14:51 10° NNW 06:18:36 45° W 06:22:19 10° SSW visible
29 Oct 2.7 18:31:57 10° S 18:35:48 67° E 18:39:41 10° NNE visible
30 Oct 6.0 04:30:02 10° NE 04:31:39 12° ENE 04:33:16 10° E visible
30 Oct 2.9 06:04:11 10° NNW 06:07:58 49° W 06:11:43 10° SSW visible
30 Oct 2.7 18:21:20 10° S 18:25:10 61° E 18:29:02 10° NNE visible
31 Oct 6.1 04:19:41 10° NE 04:20:58 11° ENE 04:22:15 10° E visible
31 Oct 2.8 05:53:30 10° NNW 05:57:19 53° W 06:01:07 10° S visible
31 Oct 2.8 18:10:42 10° S 18:14:31 56° E 18:18:21 10° NNE visible
31 Oct 6.1 19:49:58 10° W 19:50:54 11° WNW 19:51:51 10° NW visible
01 Nov 6.1 04:09:29 10° NE 04:10:16 11° ENE 04:11:03 10° E visible
01 Nov 2.7 05:42:49 10° NNW 05:46:40 58° W 05:50:29 10° S visible
01 Nov 6.0 19:38:49 10° W 19:40:11 12° WNW 19:41:34 10° NW visible
02 Nov 2.6 04:35:02 45° NW 04:35:59 63° W 04:39:50 10° S visible
02 Nov 6.0 18:27:46 10° W 18:29:28 12° WNW 18:31:10 10° NW visible
